Change the Weather History Date:

Wednesday, January 29, 2014

  Actual Average Record
Temperature  
Mean Temperature 54 °F -  
Max Temperature 63 °F 56 °F 70 °F (2015)
Min Temperature 46 °F 37 °F 25 °F (1969)
Degree Days  
Heating Degree Days 10    
Growing Degree Days 4 (Base 50)    
Moisture  
Dew Point 53 °F    
Average Humidity 88    
Maximum Humidity 100    
Minimum Humidity 78    
Precipitation  
Precipitation 0.02 in - - ()
Sea Level Pressure  
Sea Level Pressure 30.08 in    
Wind  
Wind Speed 4 mph (SSW)    
Max Wind Speed 14 mph    
Max Gust Speed 17 mph    
Visibility 10 miles    
Events Rain    
Averages and records for this station are not official NWS values.
T = Trace of Precipitation, MM = Missing Value Source: NWS Daily Summary

Daily Weather History Graph

Daily Weather History Graph

Search for Another Location

Airport or City:

Trip Planner

Search our weather history database for the weather conditions in past years. The results will help you decide how hot, cold, wet, or windy it might be!

Date:

Astronomy

Jan. 29, 2014 Rise Set
Actual Time 7:15 AM PST 5:27 PM PST
Civil Twilight 6:47 AM PST 5:55 PM PST
Nautical Twilight 6:15 AM PST 6:26 PM PST
Astronomical Twilight 5:44 AM PST 6:58 PM PST
Moon 5:56 AM PST (1/29) 4:32 PM PST (1/29)
Length of Visible Light 11h 07m
Length of Day
10h 11m
Waning Crescent, 2% of the Moon is Illuminated
Jan 29
Waning Crescent
Jan 30
New
Feb 6
First Quarter
Feb 14
Full
Feb 22
Last Quarter

Hourly Weather History & Observations

Time (PST) Temp. Dew Point Humidity Pressure Visibility Wind Dir Wind Speed Gust Speed Precip Events Conditions
12:53 AM 51.1 °F 48.9 °F 92% 30.17 in 10.0 mi Calm Calm - N/A   Scattered Clouds
1:53 AM 50.0 °F 48.9 °F 96% 30.17 in 10.0 mi Calm Calm - N/A   Mostly Cloudy
2:53 AM 46.9 °F 46.9 °F 100% 30.17 in 9.0 mi Calm Calm - N/A   Clear
3:53 AM 50.0 °F 48.9 °F 96% 30.16 in 10.0 mi Calm Calm - N/A   Overcast
4:53 AM 50.0 °F 48.9 °F 96% 30.15 in 10.0 mi Calm Calm - N/A   Scattered Clouds
5:53 AM 55.0 °F 53.1 °F 93% 30.14 in 10.0 mi Calm Calm - N/A   Clear
6:53 AM 55.0 °F 53.1 °F 93% 30.13 in 10.0 mi SW 9.2 mph - N/A   Partly Cloudy
7:53 AM 57.9 °F 55.0 °F 90% 30.13 in 10.0 mi SSW 5.8 mph - N/A   Clear
8:53 AM 61.0 °F 55.0 °F 81% 30.14 in 10.0 mi SSE 9.2 mph - N/A   Mostly Cloudy
9:53 AM 63.0 °F 55.9 °F 78% 30.13 in 10.0 mi SSW 8.1 mph - N/A   Partly Cloudy
10:53 AM 63.0 °F 55.9 °F 78% 30.15 in 10.0 mi SSW 6.9 mph - N/A   Scattered Clouds
11:53 AM 62.1 °F 55.0 °F 78% 30.12 in 10.0 mi SSW 8.1 mph - N/A   Clear
12:53 PM 62.1 °F 55.0 °F 78% 30.10 in 10.0 mi SW 12.7 mph 17.3 mph N/A   Mostly Cloudy
1:53 PM 61.0 °F 55.0 °F 81% 30.06 in 10.0 mi SSW 8.1 mph - N/A   Mostly Cloudy
2:53 PM 60.1 °F 55.0 °F 83% 30.05 in 10.0 mi South 13.8 mph - N/A   Overcast
3:18 PM 60.1 °F 55.0 °F 83% 30.05 in 10.0 mi South 10.4 mph - N/A   Overcast
3:53 PM 60.1 °F 55.0 °F 83% 30.04 in 10.0 mi SE 5.8 mph - N/A   Overcast
4:20 PM 59.0 °F 55.0 °F 87% 30.05 in 10.0 mi South 5.8 mph - N/A   Overcast
4:53 PM 59.0 °F 55.0 °F 87% 30.05 in 10.0 mi SSW 5.8 mph - N/A   Overcast
5:32 PM 57.9 °F 55.0 °F 90% 30.03 in 10.0 mi SSW 6.9 mph - N/A   Overcast
5:40 PM 57.9 °F 55.0 °F 90% 30.02 in 10.0 mi SSW 8.1 mph - N/A   Overcast
5:53 PM 57.9 °F 55.0 °F 90% 30.01 in 10.0 mi SSW 8.1 mph - N/A   Scattered Clouds
6:53 PM 57.0 °F 54.0 °F 89% 30.01 in 10.0 mi SW 4.6 mph - N/A   Mostly Cloudy
7:53 PM 55.0 °F 53.1 °F 93% 30.02 in 10.0 mi Calm Calm - N/A   Scattered Clouds
8:53 PM 54.0 °F 52.0 °F 93% 30.00 in 10.0 mi Calm Calm - N/A   Overcast
9:53 PM 54.0 °F 51.1 °F 90% 30.00 in 10.0 mi Calm Calm - N/A   Overcast
10:53 PM 54.0 °F 50.0 °F 86% 29.99 in 10.0 mi Calm Calm - 0.00 in Rain Light Rain
11:53 PM 53.1 °F 51.1 °F 93% 29.99 in 10.0 mi Calm Calm - 0.02 in Rain Light Rain